Weather History for KDEC - January, 2013

Change the Weather History Date:

Sunday, January 13, 2013

  Actual Average Record
Temperature  
Mean Temperature 24 °F 27 °F  
Max Temperature 31 °F 35 °F 22 °F (2015)
Min Temperature 16 °F 19 °F 6 °F (2015)
Degree Days  
Heating Degree Days 41 38  
Month to date heating degree days 439 489  
Since 1 July heating degree days 2384 2628  
Cooling Degree Days 0 0  
Month to date cooling degree days 0 0  
Year to date cooling degree days 0 0  
Moisture  
Dew Point 20 °F    
Average Humidity 83    
Maximum Humidity 92    
Minimum Humidity 73    
Precipitation  
Precipitation T in 0.05 in 0.00 in (2015)
Month to date precipitation 0.85 0.87  
Year to date precipitation 0.85 0.87  
Sea Level Pressure  
Sea Level Pressure 30.08 in    
Wind  
Wind Speed 13 mph (NW)    
Max Wind Speed 23 mph    
Max Gust Speed 29 mph    
Visibility 8 miles    
Events Rain , Snow    
T = Trace of Precipitation, MM = Missing Value Source: NWS Daily Summary

Daily Weather History Graph

Daily Weather History Graph

Search for Another Location

Airport or City:

Trip Planner

Search our weather history database for the weather conditions in past years. The results will help you decide how hot, cold, wet, or windy it might be!

Date:

Astronomy

Jan. 13, 2013 Rise Set
Actual Time 7:15 AM CST 4:53 PM CST
Civil Twilight 6:45 AM CST 5:23 PM CST
Nautical Twilight 6:12 AM CST 5:56 PM CST
Astronomical Twilight 5:40 AM CST 6:28 PM CST
Moon 8:14 AM CST (1/13) 7:31 PM CST (1/13)
Length of Visible Light 10h 37m
Length of Day
9h 37m
Waxing Crescent, 5% of the Moon is Illuminated
Jan 13
Waxing Crescent
Jan 18
First Quarter
Jan 26
Full
Feb 3
Last Quarter
Feb 10
New

Hourly Weather History & Observations

Time (CST) Temp. Windchill Dew Point Humidity Pressure Visibility Wind Dir Wind Speed Gust Speed Precip Events Conditions
12:09 AM 30.2 °F 17.4 °F 30.2 °F 100% 29.89 in 9.0 mi NNW 20.7 mph 28.8 mph N/A   Overcast
12:31 AM 30.2 °F 18.5 °F 30.2 °F 100% 29.89 in 6.0 mi NW 17.3 mph 26.5 mph 0.00 in Rain Light Freezing Rain
12:50 AM 30.2 °F 18.5 °F 28.4 °F 93% 29.91 in 2.5 mi NNW 17.3 mph 26.5 mph 0.00 in Snow Light Snow
12:54 AM 30.9 °F 20.7 °F 28.9 °F 92% 29.93 in 2.5 mi NW 13.8 mph 26.5 mph 0.00 in Snow Light Snow
1:00 AM 30.2 °F 19.8 °F 28.4 °F 93% 29.91 in 3.0 mi NNW 13.8 mph 23.0 mph 0.00 in Rain Light Freezing Rain
1:54 AM 30.9 °F 22.8 °F 28.9 °F 92% 29.91 in 6.0 mi North 9.2 mph - 0.00 in Rain Light Freezing Rain
2:08 AM 30.2 °F 19.3 °F 28.4 °F 93% 29.92 in 10.0 mi North 15.0 mph - 0.00 in   Overcast
2:54 AM 30.0 °F 21.1 °F 28.0 °F 92% 29.94 in 10.0 mi North 10.4 mph - 0.00 in   Overcast
3:54 AM 30.0 °F 23.2 °F 28.0 °F 92% 29.97 in 10.0 mi NNW 6.9 mph - N/A   Overcast
4:54 AM 28.9 °F 18.2 °F 26.1 °F 89% 29.99 in 10.0 mi NW 13.8 mph - N/A   Overcast
5:54 AM 27.0 °F 16.1 °F 25.0 °F 92% 29.99 in 5.0 mi NW 12.7 mph 21.9 mph N/A   Overcast
6:54 AM 27.0 °F 15.6 °F 24.1 °F 89% 30.04 in 6.0 mi WNW 13.8 mph 20.7 mph N/A   Overcast
7:26 AM 26.6 °F 15.2 °F 21.2 °F 80% 30.00 in 9.0 mi NW 13.8 mph - N/A   Overcast
7:54 AM 25.0 °F 13.1 °F 21.9 °F 88% 30.05 in 7.0 mi NW 13.8 mph 21.9 mph N/A   Overcast
8:54 AM 25.0 °F 14.8 °F 21.0 °F 85% 30.07 in 6.0 mi NW 10.4 mph - N/A   Overcast
9:10 AM 24.8 °F 13.4 °F 21.2 °F 86% 30.05 in 6.0 mi NW 12.7 mph 20.7 mph N/A   Overcast
9:47 AM 24.8 °F 12.9 °F 21.2 °F 86% 30.03 in 6.0 mi WNW 13.8 mph - N/A   Overcast
9:54 AM 25.0 °F 13.6 °F 21.9 °F 88% 30.07 in 6.0 mi WNW 12.7 mph 19.6 mph N/A   Overcast
10:31 AM 24.8 °F 11.9 °F 21.2 °F 86% 30.00 in 6.0 mi NW 16.1 mph 24.2 mph N/A   Overcast
10:54 AM 24.1 °F 10.1 °F 19.9 °F 84% 30.04 in 7.0 mi WNW 18.4 mph 25.3 mph N/A   Overcast
11:25 AM 23.0 °F 9.2 °F 17.6 °F 80% 30.08 in 8.0 mi WNW 17.3 mph 25.3 mph N/A   Overcast
11:32 AM 23.0 °F 9.2 °F 17.6 °F 80% 30.06 in 6.0 mi NW 17.3 mph 24.2 mph 0.00 in   Overcast
11:54 AM 21.9 °F 8.2 °F 17.1 °F 82% 30.10 in 4.0 mi NW 16.1 mph - 0.00 in Snow Light Snow
12:19 PM 21.2 °F 7.8 °F 17.6 °F 86% 30.05 in 9.0 mi NW 15.0 mph 23.0 mph 0.00 in Rain Light Freezing Rain
12:47 PM 21.2 °F 6.0 °F 17.6 °F 86% 30.00 in 10.0 mi NW 19.6 mph 26.5 mph 0.00 in   Overcast
12:54 PM 21.9 °F 7.3 °F 17.1 °F 82% 30.05 in 10.0 mi NW 18.4 mph 26.5 mph 0.00 in   Overcast
1:29 PM 21.2 °F 8.3 °F 17.6 °F 86% 30.04 in 10.0 mi NW 13.8 mph 19.6 mph N/A   Overcast
1:54 PM 21.9 °F 8.2 °F 16.0 °F 78% 30.09 in 10.0 mi NW 16.1 mph 21.9 mph N/A   Overcast
2:54 PM 21.0 °F 7.6 °F 16.0 °F 81% 30.11 in 10.0 mi WNW 15.0 mph - N/A   Overcast
3:18 PM 21.2 °F 8.9 °F 15.8 °F 80% 30.11 in 10.0 mi NW 12.7 mph - N/A   Overcast
3:39 PM 21.2 °F 8.3 °F 15.8 °F 80% 30.13 in 10.0 mi West 13.8 mph 18.4 mph N/A   Overcast
3:54 PM 21.0 °F 8.1 °F 15.1 °F 78% 30.17 in 10.0 mi NW 13.8 mph - N/A   Overcast
4:54 PM 21.0 °F 6.6 °F 15.1 °F 78% 30.20 in 10.0 mi WNW 17.3 mph 21.9 mph N/A   Overcast
5:29 PM 21.2 °F 6.8 °F 14.0 °F 74% 30.19 in 10.0 mi WNW 17.3 mph 24.2 mph N/A   Overcast
5:54 PM 19.9 °F 7.3 °F 14.0 °F 78% 30.25 in 10.0 mi WNW 12.7 mph - N/A   Overcast
6:40 PM 19.4 °F 6.6 °F 12.2 °F 74% 30.22 in 10.0 mi NW 12.7 mph 20.7 mph N/A   Scattered Clouds
6:54 PM 19.9 °F 9.3 °F 12.9 °F 74% 30.25 in 10.0 mi WNW 9.2 mph - N/A   Partly Cloudy
7:54 PM 19.0 °F 6.1 °F 12.0 °F 74% 30.27 in 10.0 mi NW 12.7 mph - N/A   Clear
8:54 PM 17.1 °F 4.3 °F 12.0 °F 81% 30.28 in 10.0 mi NW 11.5 mph - N/A   Clear
9:54 PM 17.1 °F 6.6 °F 10.9 °F 77% 30.30 in 10.0 mi WNW 8.1 mph - N/A   Clear
10:54 PM 17.1 °F 5.0 °F 10.0 °F 74% 30.32 in 10.0 mi NW 10.4 mph - N/A   Clear
11:54 PM 16.0 °F 5.3 °F 10.0 °F 77% 30.36 in 10.0 mi WNW 8.1 mph - N/A   Clear